User: anonymous   Login
Location: Newark
(42.9260°N, 89.3850°W)
Time: 22:35:14
(UTC+00:00)
Language:

STARLINK-1046 - Orbit

View from above orbital plane
View from above orbital plane
View from above satellite
View from above satellite

Ground track
Ground track

The orbit data is extracted from the following two-line orbital elements,

1 44751C 19074AQ  20052.86023462  .00001739  00000-0  11910-3 0   527
2 44751  52.9984  57.9541 0001467  73.2296 333.7430 15.05582664    14
Epoch (UTC): 21 February 2020 20:38:44
Eccentricity: 0.0001467
inclination: 52.9984°
perigee height: 549 km
apogee height: 551 km
right ascension of ascending node: 57.9541°
argument of perigee: 73.2296°
revolutions per day: 15.05582664
mean anomaly at epoch: 333.7430°
orbit number at epoch: 1

The dashed part of the orbit path shows where the satellite is in the earth's shadow,  

DLR